Location: Écuvilly
(49.6505°N, 2.9206°E)
Time: 17:19:07
(UTC+00:00)

Cosmos 1602 - Pass Details

Date: 17 November 2025
Orbit: 368 x 376 km, 82.5° (Epoch: 08 December)

Event Time Altitude Azimuth Distance (km) Brightness Sun altitude
Rises 17:05:20 0° 360° (N) 2,285 6.8 -10.1°
Reaches altitude 10° 17:07:33 10° 14° (NNE) 1,429 5.6 -10.5°
Maximum altitude 17:10:12 25° 73° (ENE) 832 4.1 -10.9°
Drops below altitude 10° 17:12:50 10° 132° (SE) 1,426 5.6 -11.3°
Sets 17:15:03 0° 146° (SE) 2,279 6.8 -11.6°
